Location: Trois-Rivi�res
(46.3500°N, 72.5500°W)
Time: 11:50:25
(UTC-05:00)

Vanguard 2 - Visible Passes

Search period start: 18 December 2017 00:00
Search period end: 28 December 2017 00:00
Orbit: 553 x 2939 km, 32.9° (Epoch: 17 December)

Date Brightness Start Highest point End Pass type
(mag) Time Alt. Az. Time Alt. Az. Time Alt. Az.
18 Dec 9.9 17:39:57 10° SW 17:42:34 13° SSW 17:44:51 10° S visible
22 Dec 10.3 16:41:23 10° WSW 16:46:03 17° SSW 16:49:41 10° S visible
23 Dec 10.6 17:00:19 10° WSW 17:03:33 13° SW 17:06:17 10° S visible
